Tracking 20721 objects as of 1-Jun-2020
HD Live streaming from Space Station
objects crossing your sky now

COSMOS 1275 DEB *

Track COSMOS 1275 DEB * now!
10-day predictions


NORAD ID: 18565
Int'l Code: 1981-053LY
Perigee: 1,017.7 km
Apogee: 1,213.4 km
Inclination: 82.5 °
Period: 107.4 minutes
Semi major axis: 7486 km
RCS: 0.0174 m2 (small)
Launch date: June 4, 1981
Source: Commonwealth of Independent States (former USSR) (CIS)
Launch site: PLESETSK MISSILE AND SPACE COMPLEX (PKMTR)

Note: This is SATELLITE DEBRIS
aabbcc
Your satellite tracking list
Your tracking list is empty




NASA's NSSDC Master Catalog

Two Line Element Set (TLE):
1 18565U 85094U   20152.33087028 -.00003440  00000-0 -60219-2 0  9995
2 18565  82.4748   2.4829 0130923 216.5354 321.0273 13.40215753610454
Source of the keplerian elements: AFSPC